Weather History for KSLC - March, 2014

Change the Weather History Date:

Monday, March 10, 2014

  Actual Average Record
Temperature  
Mean Temperature 55 °F 42 °F  
Max Temperature 66 °F 52 °F 75 °F (1989)
Min Temperature 43 °F 32 °F 13 °F (1964)
Degree Days  
Heating Degree Days 10 23  
Month to date heating degree days 142 242  
Since 1 July heating degree days 4129 4498  
Cooling Degree Days 0 0  
Month to date cooling degree days 0 0  
Year to date cooling degree days 0 0  
Growing Degree Days 5 (Base 50)    
Moisture  
Dew Point 25 °F    
Average Humidity 36    
Maximum Humidity 59    
Minimum Humidity 13    
Precipitation  
Precipitation T in 0.06 in 0.80 in (1891)
Month to date precipitation 0.30 0.52  
Year to date precipitation 3.07 3.02  
Snow  
Snow 0.00 in 0.20 in 7.40 in (1962)
Month to date snowfall 0.0 2.5  
Since 1 July snowfall 35.0 47.9  
Snow Depth 0.00 in    
Sea Level Pressure  
Sea Level Pressure 29.87 in    
Wind  
Wind Speed 15 mph (South)    
Max Wind Speed 36 mph    
Max Gust Speed 46 mph    
Visibility 10 miles    
Events Rain    
T = Trace of Precipitation, MM = Missing Value Source: NWS Daily Summary

Daily Weather History Graph

Daily Weather History Graph

Search for Another Location

Airport or City:

Trip Planner

Search our weather history database for the weather conditions in past years. The results will help you decide how hot, cold, wet, or windy it might be!

Date:

Astronomy

Mar. 10, 2014 Rise Set
Actual Time 7:47 AM MDT 7:29 PM MDT
Civil Twilight 7:20 AM MDT 7:56 PM MDT
Nautical Twilight 6:48 AM MDT 8:28 PM MDT
Astronomical Twilight 6:16 AM MDT 9:00 PM MDT
Moon 2:14 PM MDT (3/10) 4:03 AM MDT (3/10)
Length of Visible Light 12h 36m
Length of Day
11h 41m
Waxing Gibbous, 70% of the Moon is Illuminated
Mar 10
Waxing Gibbous
Mar 16
Full
Mar 23
Last Quarter
Mar 30
New
Apr 7
First Quarter

Hourly Weather History & Observations

Time (MDT) Temp. Windchill Dew Point Humidity Pressure Visibility Wind Dir Wind Speed Gust Speed Precip Events Conditions
12:53 AM 52.0 °F - 36.0 °F 54% 30.04 in 10.0 mi SE 10.4 mph - N/A   Mostly Cloudy
1:53 AM 55.0 °F - 28.9 °F 37% 30.01 in 10.0 mi SE 11.5 mph - N/A   Mostly Cloudy
2:53 AM 55.0 °F - 25.0 °F 31% 29.99 in 10.0 mi SE 11.5 mph - N/A   Mostly Cloudy
3:53 AM 54.0 °F - 24.1 °F 31% 29.96 in 10.0 mi SE 12.7 mph - N/A   Mostly Cloudy
4:53 AM 53.1 °F - 25.0 °F 34% 29.92 in 10.0 mi SE 10.4 mph - N/A   Mostly Cloudy
5:53 AM 51.1 °F - 25.0 °F 36% 29.91 in 10.0 mi SE 8.1 mph - N/A   Mostly Cloudy
6:53 AM 52.0 °F - 25.0 °F 35% 29.89 in 10.0 mi ESE 5.8 mph - N/A   Mostly Cloudy
7:53 AM 54.0 °F - 24.1 °F 31% 29.88 in 10.0 mi SSE 8.1 mph - N/A   Mostly Cloudy
8:53 AM 57.0 °F - 19.9 °F 24% 29.89 in 10.0 mi SSE 19.6 mph 25.3 mph N/A   Overcast
9:53 AM 57.0 °F - 21.9 °F 26% 29.86 in 10.0 mi SSE 12.7 mph - N/A   Overcast
10:53 AM 62.1 °F - 19.0 °F 19% 29.82 in 10.0 mi South 19.6 mph - N/A   Mostly Cloudy
11:53 AM 62.1 °F - 16.0 °F 17% 29.80 in 10.0 mi South 23.0 mph 35.7 mph N/A   Mostly Cloudy
12:53 PM 64.0 °F - 16.0 °F 16% 29.78 in 10.0 mi South 24.2 mph 33.4 mph N/A   Mostly Cloudy
1:53 PM 64.9 °F - 15.1 °F 15% 29.75 in 10.0 mi South 18.4 mph 28.8 mph N/A   Mostly Cloudy
2:53 PM 64.9 °F - 17.1 °F 16% 29.71 in 10.0 mi South 15.0 mph 24.2 mph N/A   Overcast
3:53 PM 64.0 °F - 21.0 °F 19% 29.70 in 10.0 mi SW 9.2 mph - N/A   Overcast
4:53 PM 64.0 °F - 25.0 °F 23% 29.69 in 10.0 mi SSW 3.5 mph - N/A   Overcast
5:53 PM 59.0 °F - 28.0 °F 31% 29.75 in 10.0 mi WNW 23.0 mph 31.1 mph N/A   Overcast
6:53 PM 55.0 °F - 32.0 °F 42% 29.82 in 10.0 mi NW 12.7 mph 20.7 mph N/A   Overcast
7:53 PM 51.1 °F - 36.0 °F 56% 29.88 in 10.0 mi NNW 20.7 mph 28.8 mph 0.00 in Rain Light Rain
8:53 PM 48.9 °F - 33.1 °F 54% 29.93 in 10.0 mi West 18.4 mph 27.6 mph 0.00 in   Overcast
9:53 PM 46.9 °F - 33.1 °F 59% 29.95 in 10.0 mi West 19.6 mph 28.8 mph N/A   Overcast
10:53 PM 45.0 °F 37.4 °F 28.9 °F 53% 29.97 in 10.0 mi West 18.4 mph 26.5 mph 0.00 in   Mostly Cloudy
11:53 PM 44.1 °F 37.4 °F 28.9 °F 55% 29.99 in 10.0 mi WNW 13.8 mph 23.0 mph N/A   Scattered Clouds